1st Responders/1st Detectors/Storm Spotters Weather Summary for Laurel County, KY

Forecast Maps


Reg. NEXRAD Animation


National Fire Danger: Day 1 & 2 Map

Current NWS Watch/Warnings

SPC Convective Day 1 Outlook


Day 2 Outlook

(Click images to enlarge|Page will refresh every 5 minutes)
UK Ag. Weather Center Desktop Severe Weather Service[HERE]
Laurel County, KY Hazardous Weather Outlook Webcast
(9 AM to 9 PM Mon-Fri)
[Fast]
[Dial-up]


UKAWC 1st Detectors/1st Responders Precision Weather Forecast For LAUREL County, Kentucky
(based on the NWS County Digital Forecast)

ISSUED AT 08:00 UTC ON SUNDAY SEP 15 2019
DAY SUNDAY
EDT 3HR 5A 6A 7A 8A 9A 10A 11A NOON 1P 2P 3P 4P 5P 6P 7P
MAX/MIN -- -- -- 52° -- -- -- -- -- -- -- -- -- -- 88°
TEMP 56° 54° 52° 54° 59° 67° 74° 79° 81° 85° 86° 88° 88° 85° 79°
SKY COVER 31% 24% 17% 10% 7% 5% 2% 2% 1% 1% 1% 1% 1% 1% 1%
Clouds
DEW PT 54° 54° 52° 54° 56° 58° 58° 56° 54° 52° 52° 50° 52° 54° 56°
RH 93% 99% 99% 100% 89% 75% 59% 47% 38% 33% 30% 27% 29% 35% 43%
POP 12HR -- -- -- 0% -- -- -- -- -- -- -- -- -- -- --
RAIN/SNOW (liq.equ) -- -- -- 0.00in -- -- -- -- -- 0.00in -- -- -- -- --
SNOWFALL -- -- -- 0in -- -- -- -- -- 0in -- -- -- -- --
WIND SPEED(MPH) 1 1 1 1 2 2 2 2 1 1 2 2 5 2 1
WIND Gust(MPH) 5 5 5 2 5 5 5 5 5 5 2 2 5 5 5
WIND DIR NE NE E E E E E E E E NE NE N N N
DEW Mod Dew Mod Dew Mod Dew Mod Dew Mod Dew Lgt Dew -- -- -- -- -- -- -- -- --
HeatIndex 56 54 52 54 59 67 74 79 81 83 84 86 85 83 80
WIND CHILL -- -- -- -- -- -- -- -- -- -- -- -- -- -- --
SPRAY COND
DRY COND
LIVESTOCK HEATSTRESS 56.11 54.03 52.04 54.00 58.99 65.87 70.57 73.11 73.43 75.35 75.53 76.28 76.60 75.63 72.67



DAY MONDAY TUESDAY WEDNESDAY THURSDAY FRIDAY SATURDAY
EDT 6HR 8P 9P 10P 11P MIDN 1A 2A 3A 4A 5A 6A 7A 8A 9A 10A 11A NOON 1P 2P 3P 4P 5P 8P 11P 2A 5A 8A 11A 2P 5P 8P 2A 8A 2P 8P 2A 8A 2P 8P 2A 8A 2P 8P 2A 8A 2P 8P
MAX/MIN -- -- -- -- -- -- -- -- -- -- -- -- 56° -- -- -- -- -- -- -- -- 90° -- -- -- -- 63° -- -- 85° -- -- 61° 86° -- -- 61° 86° -- -- 61° 86° -- -- 61° 88° --
TEMP 74° 70° 67° 65° 63° 63° 61° 61° 59° 58° 56° 56° 59° 65° 72° 79° 83° 85° 86° 88° 90° 90° 79° 70° 67° 65° 63° 74° 83° 83° 76° 67° 61° 83° 76° 67° 63° 85° 76° 67° 63° 85° 76° 65° 63° 85° 76°
SKY COVER 2% 2% 2% 2% 3% 3% 4% 4% 5% 5% 7% 8% 4% 4% 4% 8% 11% 15% 23% 23% 23% 23% 25% 23% 24% 32% 28% 32% 24% 26% 22% 16% 11% 12% 14% 22% 15% 33% 19% 28% 24% 28% 15% 24% 26% 26% 36%
Clouds
DEW PT 56° 56° 56° 56° 56° 54° 56° 56° 56° 54° 54° 54° 54° 56° 58° 59° 59° 59° 58° 58° 58° 59° 63° 63° 65° 63° 63° 65° 63° 61° 63° 61° 61° 61° 61° 61° 59° 63° 63° 59° 58° 61° 61° 61° 58° 58° 61°
RH 52% 61% 68% 72% 75% 75% 80% 83% 86% 86% 93% 93% 83% 75% 63% 51% 46% 41% 38% 36% 35% 37% 58% 78% 89% 93% 96% 73% 51% 47% 64% 84% 96% 47% 60% 84% 90% 47% 66% 78% 86% 44% 61% 84% 83% 40% 62%
POP 12HR 0% -- -- -- -- -- -- -- -- -- -- -- 0% -- -- -- -- -- -- -- -- -- 9% -- -- -- 10% -- -- -- 1% -- 1% -- 2% -- 1% -- 4% -- 4% -- 5% -- 5% -- 7%
RAIN/SNOW (liq.equ) 0.00in -- -- -- -- -- 0.00in -- -- -- -- -- 0.00in -- -- -- -- -- 0.00in -- -- -- 0.00in -- 0.00in -- 0.00in -- 0.00in -- 0.00in -- -- -- -- -- -- -- -- -- -- -- -- -- -- -- --
SNOWFALL 0in -- -- -- -- -- 0in -- -- -- -- -- 0in -- -- -- -- -- 0in -- -- -- 0in -- 0in -- 0in -- 0in -- 0in -- -- -- -- -- -- -- -- -- -- -- -- -- -- -- --
WIND SPEED(MPH) 1 1 1 1 0 1 1 1 1 1 1 0 0 0 0 0 1 1 2 5 5 5 1 0 0 0 0 2 6 6 2 1 1 2 1 1 1 5 1 1 1 2 1 0 0 2 0
WIND DIR N N E SE S S S S S S S S N NW NW NW NW N N N N N NW NE NE NE NE NE NE NE NE E E E E E S S S S S W E S S W N
HeatIndex 74 70 67 65 63 63 61 61 59 58 56 56 59 65 72 79 83 85 86 88 89 89 81 70 67 65 63 74 84 84 76 67 61 84 76 67 63 85 76 67 63 85 76 65 63 85 76
WIND CHILL -- -- -- -- -- -- -- -- -- -- -- -- -- -- -- -- -- -- -- -- -- -- -- -- -- -- -- -- -- -- -- -- -- -- -- -- -- -- -- -- -- -- -- -- -- -- --
SPRAY COND
DRY COND
LIVESTOCK HEATSTRESS 69.99 67.60 65.56 64.05 62.42 62.42 60.76 60.79 58.98 58.06 56.11 56.11 58.98 64.15 69.31 73.56 75.81 76.50 76.72 77.72 78.85 79.19 74.33 68.64 66.50 64.76 62.91 71.74 76.48 75.95 72.59 66.28 60.95 75.95 72.22 66.28 62.77 77.36 72.78 66.01 62.68 76.93 72.31 64.45 62.61 76.35 72.41

Click on individual weather variable above in left-hand column (ie., TEMP, RH, QPF 12HR) to view state forecast maps






NWS 48 Hr. Forecast Maps,

Regional Hourly Observations For LAUREL County, Kentucky
Issued at 400 AM EDT SUN SEP 15 2019
...EASTERN KENTUCKY...
  
CITY           SKY/WX    TMP DP  RH WIND       PRES   REMARKS
JACKSON          N/A     64  54  69 CALM      30.24S                  
LONDON           N/A     59  55  87 CALM      30.22F                  
SOMERSET*        N/A     59  50  72 CALM      30.22F                  
MONTICELLO*      N/A     54  54 100 VRB7      30.23F                  
WILLIAMSBURG*    N/A     59  57  94 CALM      30.22S                  
MIDDLESBORO*     N/A     59  59 100 CALM      30.24S                  
HARLAN APT*      N/A     58  57  97 E3        30.24F                  
PIKE CO APT*     N/A     64  54  70 CALM      30.24F                  
BIG SANDY APT*   N/A     58  57  96 CALM      30.24F                  
MOREHEAD APT*    N/A     55  54  94 SW5       30.25S                  
ASHLAND*       MOCLDY    56  55  97 CALM      30.23F                  


Current NOWCAST not available:
Nowcasts are not issued routinely during fair weather. Only when
precipitation or other significant weather is occuring in this county will these
forecasts be issued. Currently, there is no short term forecast in effect.


Fire Weather Forecast For LAUREL County, KY
Provided by the National Weather Service:

Issued at: Sun Sep 15 04:05:01 EDT 2019

557 AM EDT Sat Sep 14 2019

                      Today        Tonight      Sun          

Cloud Cover           PCldy        MClear       Clear        
Chance precip (%)     0            0            0            
Precip type           None         None         None         
Temp (24H TREND)      82-87 (-6)   52-63 (-4)   85-90        
Rh % (24H TREND)      38-51 (+13)  76-100 (+2)  27-32        
20ftwnd-AM(mph)       Lgt/Var                   Lgt/Var      
20ftwnd-PM(mph)       NW 3-7       Lgt/Var      NE 2-6       
Precip duration                                              
Precip begin                                                 
Precip end                                                   
Precip amount         0.00         0.00         0.00         
LAL                   1            1            1            
Haines Index (MID)    3                         5            
Mixing hgt(ft-AGL)    4800                      3400         
Transport wnd (mph)   NW  8                     NE  5        
Vent rate (kt-ft)     34368                     15062        
ADI Early             27 Fair      2 Very Poor  19 Gen Poor  
ADI Late              32 Fair      4 Very Poor  20 Gen Poor  
Max LVORI Early       9            5            6            
Max LVORI Late        3            7            2            

REMARKS...RANGES OF MIN T EXCEEDING 8 DEGREES & RANGES OF MAX RH        
EXCEEDING 10% INDICATE THE LIKELIHOOD OF THERMAL BELTS. ADI IS        
ATMOSPHERIC DISPERSION INDEX BY LAVDAS. DISPERSION INDEX IS        
MAGNITUDE OF VENT RATE DIVIDED BY 1000.


SPC's Fire Weather Web Tool (Excellent!), SPC's Fire Weather Outlooks, NWS Fire Weather WEB, Fire Danger Class Map,
Keetch-Byram Drought Index, ROMAN Web, Haines Index ,
WFAS's 10-hr Dead Fuel Moist., WFAS's 100-hr Dead Fuel Moist., Probablity of Ignition, Visual blackness Map, Palmer Drought Index, HPC's Rainfall Forecast Maps


Hazardous Weather Outlook For LAUREL County, Kentucky
334 PM EDT Sat Sep 14 2019

 DAY ONE  Tonight.

No hazardous weather is expected at this time.

 DAYS TWO THROUGH SEVEN  Sunday through Friday.

There is a slight chance of thunderstorms on Monday and Monday
evening.

 SPOTTER INFORMATION STATEMENT  

Spotter activation is not anticipated.

Latest LAUREL County, Kentucky Watches, Warnings and Advisories.
Additional Drought Info.: UKAWC Drought Page, Kentucky Drought Watch


7-Day Forecast For LAUREL County, KY

REST OF TONIGHT
Mostly clear. Lows in the mid 50s. Light winds.

SUNDAY
Warm, sunny. Highs in the upper 80s. Light winds.

SUNDAY NIGHT
Clear. Patchy valley fog late. Lows in the mid 50s in the valleys and in the lower 60s on the ridges. Light winds.

MONDAY
Hot, sunny. Highs in the lower 90s. Light winds.

MONDAY NIGHT
Partly cloudy. Patchy valley fog. Lows in the lower 60s. Light winds.

TUESDAY
Mostly sunny. Highs in the mid 80s.

TUESDAY NIGHT
Mostly clear. Lows around 60.

WEDNESDAY
Sunny. Highs in the upper 80s.

WEDNESDAY NIGHT
Mostly clear. Patchy valley fog. Lows in the lower 60s.

THURSDAY
Sunny. Highs in the upper 80s.

THURSDAY NIGHT
Partly cloudy. Lows in the lower 60s.

FRIDAY
Mostly sunny. Highs in the upper 80s.

FRIDAY NIGHT
Mostly clear. Patchy valley fog. Lows in the lower 60s.

SATURDAY
Mostly sunny. Highs in the upper 80s.

Ag Weather Center, Department of Biosystems & Agricultural Engineering, University of Kentucky